Weather History for Du Bois, PA

Change the Weather History Date:

Thursday, November 7, 2013

  Actual Average Record
Temperature  
Mean Temperature 46 °F 42 °F  
Max Temperature 57 °F 51 °F 69 °F (1975)
Min Temperature 34 °F 34 °F 19 °F (1967)
Degree Days  
Heating Degree Days 19 23  
Month to date heating degree days 143 152  
Since 1 July heating degree days 703 895  
Cooling Degree Days 0 0  
Month to date cooling degree days 0 0  
Year to date cooling degree days 543 362  
Moisture  
Dew Point 39 °F    
Average Humidity 74    
Maximum Humidity 93    
Minimum Humidity 54    
Precipitation  
Precipitation 0.50 in 0.11 in 4.20 in (1997)
Month to date precipitation 0.98 0.83  
Sea Level Pressure  
Sea Level Pressure 29.95 in    
Wind  
Wind Speed 11 mph (WNW)    
Max Wind Speed 25 mph    
Max Gust Speed 36 mph    
Visibility 9 miles    
Events Rain    
T = Trace of Precipitation, MM = Missing Value Source: NWS Daily Summary

Daily Weather History Graph

Daily Weather History Graph

Search for Another Location

Airport:

Trip Planner

Search our weather history database for the weather conditions in past years. The results will help you decide how hot, cold, wet, or windy it might be!

Date:

Astronomy

Nov. 07, 2013 Rise Set
Actual Time 6:54 AM EST 5:03 PM EST
Civil Twilight 6:25 AM EST 5:32 PM EST
Nautical Twilight 5:52 AM EST 6:05 PM EST
Astronomical Twilight 5:19 AM EST 6:38 PM EST
Moon 11:01 AM EST (11/7) 9:13 PM EST (11/7)
Length of Visible Light 11h 07m
Length of Day
10h 09m
Waxing Crescent, 22% of the Moon is Illuminated
Nov 7
Waxing Crescent
Nov 10
First Quarter
Nov 17
Full
Nov 25
Last Quarter
Dec 2
New

Hourly Weather History & Observations

Time (EST) Temp. Windchill Dew Point Humidity Pressure Visibility Wind Dir Wind Speed Gust Speed Precip Events Conditions
12:29 AM 57.2 °F - 53.6 °F 88% 29.91 in 5.0 mi SW 11.5 mph - 0.02 in   Overcast
12:56 AM 55.9 °F - 53.1 °F 90% 29.88 in 8.0 mi SW 11.5 mph 19.6 mph 0.03 in   Overcast
1:15 AM 55.4 °F - 53.6 °F 94% 29.88 in 10.0 mi SSW 9.2 mph - 0.01 in Rain Light Rain
1:49 AM 55.4 °F - 53.6 °F 94% 29.88 in 8.0 mi SSW 8.1 mph - 0.02 in   Overcast
1:56 AM 55.9 °F - 53.1 °F 90% 29.86 in 5.0 mi SSW 8.1 mph - 0.03 in Rain Light Rain
2:56 AM 55.9 °F - 53.1 °F 90% 29.82 in 7.0 mi SSW 6.9 mph - 0.11 in Rain Light Rain
3:56 AM 55.0 °F - 52.0 °F 89% 29.84 in 5.0 mi WNW 10.4 mph 16.1 mph 0.16 in Rain Light Rain
4:10 AM 53.6 °F - 48.2 °F 82% 29.86 in 10.0 mi WNW 12.7 mph 21.9 mph 0.02 in Rain Light Rain
4:25 AM 51.8 °F - 48.2 °F 88% 29.88 in 9.0 mi WNW 18.4 mph 25.3 mph 0.03 in Rain Light Rain
4:32 AM 51.8 °F - 46.4 °F 82% 29.88 in 10.0 mi West 13.8 mph 25.3 mph 0.04 in Rain Light Rain
4:56 AM 50.0 °F - 46.0 °F 86% 29.88 in 9.0 mi WNW 5.8 mph - 0.07 in Rain Light Rain
5:13 AM 50.0 °F - 46.4 °F 87% 29.89 in 8.0 mi WNW 9.2 mph - 0.02 in Rain Light Rain
5:23 AM 48.2 °F - 46.4 °F 93% 29.89 in 9.0 mi NW 6.9 mph - 0.02 in Rain Light Rain
5:32 AM 48.2 °F - 44.6 °F 87% 29.89 in 10.0 mi NW 6.9 mph - 0.03 in Rain Light Rain
5:56 AM 48.0 °F - 44.1 °F 86% 29.88 in 10.0 mi NW 5.8 mph - 0.04 in Rain Light Rain
6:07 AM 48.2 °F - 44.6 °F 87% 29.90 in 10.0 mi WNW 8.1 mph - 0.01 in Rain Light Rain
6:54 AM 46.4 °F 42.4 °F 42.8 °F 87% 29.90 in 10.0 mi NW 8.1 mph - 0.05 in Rain Light Rain
6:56 AM 46.9 °F - 43.0 °F 86% 29.90 in 10.0 mi NW 11.5 mph - 0.05 in Rain Light Rain
7:08 AM 46.4 °F 40.7 °F 42.8 °F 87% 29.90 in 10.0 mi NW 12.7 mph 19.6 mph 0.01 in   Overcast
7:46 AM 44.6 °F 38.8 °F 41.0 °F 87% 29.93 in 7.0 mi WNW 11.5 mph 23.0 mph 0.01 in   Overcast
7:56 AM 44.1 °F 38.1 °F 39.9 °F 85% 29.93 in 5.0 mi NW 11.5 mph 25.3 mph 0.01 in   Overcast
8:17 AM 42.8 °F 37.0 °F 39.2 °F 87% 29.95 in 10.0 mi WNW 10.4 mph 18.4 mph N/A   Mostly Cloudy
8:51 AM 42.8 °F 36.6 °F 37.4 °F 81% 29.95 in 10.0 mi NNW 11.5 mph 16.1 mph N/A   Overcast
8:56 AM 43.0 °F 38.2 °F 37.9 °F 82% 29.96 in 10.0 mi NW 8.1 mph - N/A   Overcast
9:17 AM 42.8 °F 38.0 °F 37.4 °F 81% 29.96 in 10.0 mi NW 8.1 mph 16.1 mph N/A   Overcast
9:28 AM 42.8 °F 38.0 °F 37.4 °F 81% 29.96 in 10.0 mi NW 8.1 mph 18.4 mph N/A   Overcast
9:35 AM 42.8 °F 38.0 °F 37.4 °F 81% 29.96 in 7.0 mi NW 8.1 mph 18.4 mph N/A   Overcast
9:46 AM 42.8 °F 37.5 °F 37.4 °F 81% 29.97 in 3.0 mi NNW 9.2 mph 19.6 mph N/A   Overcast
9:51 AM 42.8 °F 37.0 °F 39.2 °F 87% 29.97 in 4.0 mi NW 10.4 mph - N/A   Overcast
9:56 AM 42.1 °F 37.7 °F 39.0 °F 89% 29.97 in 4.0 mi NW 6.9 mph 17.3 mph N/A   Overcast
10:28 AM 42.8 °F 36.6 °F 37.4 °F 81% 29.97 in 10.0 mi NW 11.5 mph 23.0 mph N/A   Overcast
10:56 AM 44.1 °F 37.7 °F 37.9 °F 79% 29.99 in 10.0 mi WNW 12.7 mph 19.6 mph N/A   Overcast
11:56 AM 43.0 °F 35.1 °F 37.0 °F 80% 30.00 in 9.0 mi West 17.3 mph 26.5 mph N/A   Overcast
12:33 PM 44.6 °F 37.8 °F 35.6 °F 71% 29.97 in 10.0 mi West 15.0 mph 20.7 mph N/A   Overcast
12:56 PM 41.0 °F 35.2 °F 35.1 °F 79% 29.99 in 10.0 mi NW 9.2 mph 26.5 mph N/A   Overcast
1:56 PM 43.0 °F 36.8 °F 32.0 °F 65% 29.98 in 10.0 mi NW 11.5 mph 20.7 mph N/A   Mostly Cloudy
2:56 PM 43.0 °F 37.7 °F 30.9 °F 62% 29.97 in 10.0 mi WNW 9.2 mph - N/A   Overcast
3:56 PM 43.0 °F 34.8 °F 30.9 °F 62% 29.98 in 10.0 mi West 18.4 mph 26.5 mph 0.01 in   Overcast
4:32 PM 37.4 °F 28.9 °F 32.0 °F 81% 29.98 in 10.0 mi WNW 13.8 mph 26.5 mph N/A   Overcast
4:40 PM 37.4 °F 29.3 °F 32.0 °F 81% 29.99 in 10.0 mi West 12.7 mph 20.7 mph N/A   Overcast
4:56 PM 37.9 °F 29.6 °F 30.9 °F 76% 30.01 in 10.0 mi West 13.8 mph 21.9 mph N/A   Overcast
5:07 PM 37.4 °F 29.8 °F 30.2 °F 75% 29.99 in 10.0 mi West 11.5 mph 23.0 mph N/A   Overcast
5:54 PM 37.4 °F 30.3 °F 28.4 °F 70% 30.01 in 10.0 mi West 10.4 mph 21.9 mph N/A   Overcast
5:56 PM 37.0 °F 29.3 °F 28.0 °F 70% 30.04 in 10.0 mi West 11.5 mph 21.9 mph N/A   Overcast
6:56 PM 37.0 °F 27.0 °F 23.0 °F 57% 30.07 in 10.0 mi West 18.4 mph 23.0 mph N/A   Overcast
7:56 PM 36.0 °F 27.5 °F 24.1 °F 62% 30.08 in 10.0 mi West 12.7 mph 19.6 mph N/A   Overcast
8:56 PM 36.0 °F 29.0 °F 25.0 °F 64% 30.08 in 10.0 mi West 9.2 mph - N/A   Overcast
9:56 PM 35.1 °F 27.4 °F 25.0 °F 67% 30.08 in 10.0 mi West 10.4 mph - N/A   Overcast
10:56 PM 34.0 °F 26.6 °F 25.0 °F 70% 30.06 in 10.0 mi West 9.2 mph - N/A   Overcast
11:56 PM 35.1 °F 26.4 °F 27.0 °F 72% 30.05 in 10.0 mi WSW 12.7 mph - N/A   Overcast